Theta_e
327 327 327 326 326 326 325 325 326 326 326 325 324 322 319 318 318 317 318 318 319 320 319 319 320 320 321 321 320 318 317 316 316 316 316 317 317 318 319 319 319 320 321 321 322 324 328 333 335 336 336 337 338 340 341 342 342 342 341 341 341 341 342 343 344 344 344 343 342 339 337 336 335 335
327 327 327 326 326 326 326 326 327 327 327 326 326 324 321 319 318 317 317 318 319 320 320 320 321 321 322 322 321 318 317 317 316 316 317 317 317 318 320 320 320 320 321 322 322 323 324 328 332 336 336 336 337 338 339 340 341 341 341 341 341 340 341 342 343 344 344 343 343 341 339 337 337 336
327 327 326 326 326 327 328 328 329 329 329 328 327 326 325 323 322 321 321 322 322 322 323 322 322 322 323 323 321 319 318 318 317 317 317 317 317 317 319 321 322 321 322 323 324 324 323 324 328 333 336 337 336 336 337 338 339 340 341 341 341 340 340 341 342 343 344 343 343 342 340 338 338 337
328 327 327 325 325 325 326 326 327 328 328 329 329 328 328 327 326 325 326 326 325 324 325 324 323 324 324 324 322 320 318 318 317 317 317 317 317 316 317 319 321 322 323 324 325 325 325 324 325 328 334 337 337 337 336 337 336 337 338 339 341 342 341 341 341 342 343 344 343 342 341 339 338 337
329 329 327 325 324 324 324 323 323 324 326 328 329 329 329 329 328 328 327 328 327 326 326 326 325 325 324 323 322 320 318 318 318 317 317 317 317 317 317 317 318 320 322 324 325 326 326 326 325 325 329 335 338 338 337 337 336 336 336 336 338 341 342 341 341 341 342 343 342 341 341 340 338 336
329 329 327 325 324 324 323 322 321 321 322 325 327 329 329 328 328 328 328 328 328 327 327 326 325 324 324 323 322 321 319 318 318 317 317 317 317 317 317 317 317 317 319 321 322 324 325 326 326 325 326 331 336 338 338 338 338 336 335 334 335 338 342 342 341 341 341 341 342 342 341 340 338 336
328 328 326 325 324 323 322 320 320 320 320 321 323 325 326 327 327 327 328 328 328 328 327 326 325 324 323 323 322 321 319 319 318 317 317 317 317 318 318 318 318 317 317 318 319 321 323 325 327 326 326 328 333 337 339 338 338 338 336 335 334 335 340 342 342 341 342 342 342 342 341 340 339 337
328 327 326 325 324 323 321 320 320 320 320 319 320 321 322 324 326 327 328 328 328 327 326 325 324 324 323 323 322 321 319 319 319 318 317 317 318 318 318 318 318 318 317 317 317 318 320 323 325 327 327 327 329 334 337 338 338 338 338 337 335 335 339 342 342 341 342 341 341 341 340 340 339 338
327 327 327 326 325 323 323 321 320 320 321 320 320 320 320 322 325 327 327 327 326 325 324 323 322 323 323 323 321 319 319 320 320 319 318 317 318 318 318 319 318 318 318 317 318 318 318 320 323 326 327 328 329 331 334 337 338 337 338 338 337 336 339 342 342 340 340 340 340 340 340 340 339 338
328 328 328 326 325 324 323 321 320 321 321 321 320 320 320 322 324 325 324 324 323 323 323 323 322 322 323 323 320 318 319 321 321 319 318 318 318 318 318 319 319 318 318 317 317 318 318 319 321 324 327 328 329 330 331 334 336 337 338 339 338 338 340 341 340 339 339 340 341 341 341 340 340 339
329 328 327 326 325 325 324 322 321 321 321 321 320 320 321 321 322 322 321 322 322 322 322 322 322 323 323 322 319 318 319 321 321 320 318 318 318 318 318 319 319 318 317 317 317 317 318 318 319 322 325 327 329 330 330 332 334 336 338 339 339 339 339 340 339 338 339 341 341 341 342 341 340 339
328 328 327 325 325 326 325 324 323 322 321 321 320 320 320 320 321 320 319 320 321 321 322 322 322 322 321 320 319 320 320 321 322 321 319 319 319 318 318 319 320 318 317 317 317 317 317 318 318 320 322 326 328 330 330 331 332 334 337 339 339 339 339 339 339 339 340 341 341 341 342 342 341 340
326 326 325 325 325 326 327 326 325 324 322 321 321 320 320 320 319 319 318 319 319 320 321 320 320 320 320 320 320 321 321 321 322 322 321 320 319 319 319 320 319 317 316 316 316 316 316 317 317 319 320 323 326 329 331 331 331 332 334 338 339 339 339 339 339 340 341 341 341 341 342 341 340 339
325 325 325 326 326 327 327 327 327 326 324 322 321 321 320 320 319 319 319 318 318 319 320 319 319 320 321 319 320 320 321 321 322 322 322 321 320 320 320 320 319 317 316 316 316 316 317 317 317 319 319 320 323 327 331 332 331 331 332 336 338 339 339 339 339 340 341 342 341 341 340 339 338 338
325 326 326 326 326 326 327 327 327 326 325 323 321 321 321 321 320 320 319 319 319 319 320 320 320 321 320 319 319 320 320 321 322 323 322 322 321 320 320 319 318 317 316 316 316 316 317 318 318 319 319 320 320 323 329 332 332 331 331 333 336 338 338 338 339 340 341 342 342 340 339 338 338 338
326 327 327 327 326 326 326 327 327 326 325 324 322 321 321 321 321 321 320 320 319 319 320 320 320 319 319 319 320 320 320 322 323 323 323 322 322 321 320 319 318 316 316 316 316 316 316 317 319 319 320 320 320 321 325 330 332 332 331 332 333 336 337 337 338 339 340 341 341 340 339 338 338 338
327 327 327 327 325 324 325 326 326 326 326 324 323 321 321 321 322 321 321 320 320 319 320 320 318 318 320 321 321 320 321 322 322 322 323 323 322 321 320 319 317 317 317 316 316 317 316 317 318 319 320 320 320 321 323 327 331 332 332 331 332 334 335 336 337 338 339 339 340 340 339 339 338 338
327 327 327 327 325 323 324 324 325 325 325 324 322 320 320 320 321 321 321 321 321 319 319 318 319 319 321 322 322 320 321 321 322 322 323 323 322 321 319 317 317 317 317 316 317 317 317 317 319 320 320 320 321 321 322 325 329 332 332 332 332 332 334 334 335 337 338 339 340 339 339 339 338 337
327 327 327 326 325 323 323 323 324 325 324 322 320 320 320 320 320 321 321 321 321 320 318 318 320 321 322 322 321 320 320 321 321 322 323 323 321 319 317 317 317 317 317 316 317 317 317 317 319 320 320 320 321 321 322 323 327 331 332 332 332 332 332 333 334 335 337 338 339 339 339 338 338 337
328 328 327 326 325 324 323 323 324 324 322 320 320 319 319 319 320 320 320 321 321 320 319 319 322 322 322 321 320 320 320 321 321 322 322 322 320 317 316 317 317 317 317 316 316 318 318 318 319 320 320 320 321 321 322 323 325 329 332 333 332 332 331 332 332 333 335 336 338 338 338 338 337 337
328 328 327 327 326 324 323 324 324 323 322 321 319 318 318 318 319 320 320 321 321 320 319 321 322 322 321 320 320 320 320 320 321 321 320 320 318 316 316 317 317 317 318 317 316 317 318 318 319 320 320 320 321 321 322 323 324 327 331 333 333 332 332 332 332 333 333 334 336 336 337 336 335 334
328 327 326 326 325 324 324 324 324 323 322 320 318 316 317 318 318 319 320 321 320 320 320 322 322 321 319 320 320 320 320 320 320 320 320 319 317 316 316 317 317 318 318 316 316 317 318 319 319 320 320 321 321 322 322 323 324 326 330 333 334 333 332 332 332 333 333 333 334 335 335 335 334 333
328 326 325 324 324 324 325 325 324 323 320 318 317 316 317 317 318 320 320 321 320 320 321 322 321 319 319 319 320 320 319 319 320 321 320 319 317 316 317 317 317 317 317 315 316 317 318 319 319 320 320 321 322 322 322 323 324 325 328 332 334 333 333 333 333 334 334 334 334 334 334 334 334 334
328 326 325 324 324 324 325 325 323 321 319 318 317 316 316 318 320 320 320 320 321 322 322 322 320 318 318 319 319 319 319 319 320 320 320 320 318 317 317 317 316 316 316 315 316 317 318 318 319 320 320 321 322 322 322 324 325 326 328 331 334 334 334 334 334 334 335 335 334 333 333 334 335 336
327 325 324 323 324 325 325 325 322 320 318 317 316 316 317 319 320 321 320 321 322 323 322 321 319 319 319 319 319 319 319 319 319 319 320 320 320 319 317 316 316 315 315 315 316 317 318 318 319 320 320 321 321 322 323 323 325 327 329 330 333 334 334 334 334 334 335 335 334 333 333 334 336 336
327 325 324 324 324 325 325 324 321 319 318 317 316 316 318 319 320 321 321 322 323 323 321 320 319 319 319 318 318 318 318 318 318 318 319 319 320 320 317 316 315 315 315 316 318 318 318 319 320 320 321 321 322 322 323 323 325 327 330 331 332 334 335 335 335 334 334 334 333 333 333 334 336 336
327 326 324 324 324 325 325 323 321 319 317 316 316 317 319 320 321 321 322 323 322 321 320 319 318 318 318 318 317 317 317 317 317 317 318 319 320 319 317 315 316 315 315 317 319 319 319 319 320 321 322 322 322 322 323 324 325 327 331 333 334 334 335 336 336 335 334 334 333 333 334 335 336 337
327 326 325 325 325 325 324 322 320 318 317 316 315 317 319 321 321 322 322 322 321 319 319 318 318 318 317 317 316 316 316 316 316 317 318 319 319 318 316 316 316 316 316 318 319 319 319 320 322 323 323 322 322 323 323 324 327 329 331 334 336 337 336 336 336 335 334 334 334 334 336 337 337 337
326 326 326 326 325 325 324 322 320 319 318 316 316 317 320 321 322 322 322 320 319 318 318 318 317 317 316 315 315 315 315 315 315 316 317 318 319 318 316 316 316 316 316 318 320 319 320 322 324 325 324 323 323 323 323 324 327 330 331 332 335 338 338 336 335 335 335 336 336 337 337 337 337 337
326 326 326 326 325 325 324 322 320 319 317 317 318 320 322 322 322 321 320 318 318 317 317 316 316 315 314 313 313 312 312 313 315 316 317 318 319 318 317 317 316 315 316 318 320 320 320 323 326 326 324 324 323 323 324 325 328 331 332 333 335 337 338 337 336 336 336 336 337 337 338 338 338 338
326 326 325 325 325 324 323 320 318 316 316 318 320 322 322 321 320 319 318 317 317 316 316 315 313 312 311 311 310 309 309 309 312 315 316 317 318 319 318 317 316 315 316 318 320 321 322 324 326 325 324 324 324 324 325 326 329 331 333 334 336 337 338 338 337 337 336 336 337 338 338 338 338 338
325 325 325 325 323 322 320 318 317 316 318 320 322 321 321 320 319 318 317 316 316 315 314 312 311 310 309 309 308 308 307 307 308 312 315 317 318 319 318 316 316 317 317 317 319 321 323 325 327 326 324 324 325 326 327 328 330 331 333 335 336 338 338 338 339 339 339 339 339 339 338 338 338 338
325 324 324 323 321 319 317 316 317 318 320 321 320 320 319 318 318 317 316 316 315 313 312 310 309 308 308 308 309 308 308 307 307 309 314 317 319 319 318 316 316 317 317 317 318 320 323 326 328 328 327 327 328 328 329 330 331 331 332 334 337 338 338 338 339 340 341 341 341 340 339 339 338 338
324 324 323 321 319 317 316 316 317 319 319 319 318 318 318 317 316 316 315 314 313 311 310 308 308 308 308 308 308 308 308 308 307 307 312 316 319 319 318 316 315 316 317 317 318 319 321 325 329 330 330 330 330 329 330 333 333 333 333 336 337 338 339 339 339 340 341 341 341 341 340 339 339 338
323 322 321 319 318 317 316 316 317 318 318 318 317 317 316 315 315 314 313 312 311 309 308 307 308 308 308 308 307 306 306 307 306 306 309 315 319 320 318 316 315 315 316 317 319 319 320 323 327 330 331 331 330 330 331 333 334 335 335 336 337 338 339 339 339 340 341 341 341 341 341 340 339 338
321 319 318 318 317 317 316 316 317 317 317 317 316 315 314 314 313 312 311 310 309 308 308 308 308 308 306 305 305 304 304 305 305 305 308 314 319 319 318 317 316 315 316 317 318 319 320 321 323 327 331 332 331 331 331 332 333 334 335 337 338 338 339 339 339 340 340 340 340 340 341 341 340 340
318 317 317 317 317 317 317 317 317 316 316 315 314 313 312 312 311 310 309 308 307 307 308 308 307 305 303 302 302 303 303 304 304 303 306 313 318 319 319 318 317 316 316 317 318 319 320 321 321 323 328 331 332 333 332 332 333 334 335 337 338 339 339 339 340 339 339 339 340 340 340 341 341 342
316 316 316 317 317 317 317 317 316 315 314 312 311 311 311 310 309 308 307 307 307 307 307 306 304 302 301 300 301 301 301 302 302 302 305 312 317 319 319 319 319 317 316 316 318 319 320 320 320 321 322 326 329 332 333 334 334 334 335 336 337 338 338 339 340 339 339 339 339 340 340 341 341 342
316 316 316 316 317 316 316 315 314 312 310 309 310 310 310 308 307 307 307 307 307 306 305 303 300 299 299 299 299 300 300 301 301 301 304 311 316 318 319 320 320 318 316 316 317 319 319 319 320 320 320 321 323 326 330 331 331 332 334 335 336 336 337 338 339 339 340 340 339 339 340 340 340 340
315 316 316 316 316 315 314 312 310 309 308 309 309 309 308 307 306 307 307 307 306 303 301 299 298 298 298 298 298 299 299 299 300 302 305 311 315 317 318 319 319 318 317 316 316 318 318 319 319 319 319 320 320 322 325 326 326 329 332 334 335 336 336 337 338 339 340 340 338 338 338 339 340 340
316 316 316 315 314 312 310 309 308 307 308 308 308 307 307 306 306 307 307 305 302 299 297 297 297 297 297 297 298 298 298 298 300 303 307 311 314 316 318 319 319 319 317 316 315 316 317 318 319 318 319 320 321 322 323 323 323 325 328 332 334 335 336 336 337 337 339 339 339 338 338 339 340 340
314 314 313 311 310 308 307 307 307 307 307 307 307 307 307 307 307 306 304 300 297 296 296 296 295 295 296 297 298 297 297 298 301 305 308 311 314 316 317 318 319 319 318 316 315 315 315 317 318 318 317 318 320 321 321 320 320 320 324 328 331 334 335 336 337 337 337 338 338 339 339 340 340 339
312 311 310 309 308 307 307 306 306 306 306 307 306 306 306 306 305 302 298 295 295 295 295 295 295 295 295 296 297 296 296 298 302 305 308 311 313 314 315 317 318 319 318 315 314 314 315 316 317 317 317 318 319 319 319 319 320 319 320 323 326 329 332 334 335 337 337 337 338 338 339 338 338 337
311 309 308 308 307 307 306 306 307 307 307 307 307 306 305 304 300 296 294 294 294 295 295 295 295 295 295 295 296 296 296 297 300 303 306 309 311 313 314 316 318 319 318 316 315 315 315 315 315 316 317 318 318 319 318 318 319 319 319 320 321 324 327 329 331 335 337 337 337 338 338 337 337 337
310 309 308 307 306 306 306 306 306 307 307 307 306 305 302 299 295 294 294 294 294 294 295 295 295 295 295 295 295 295 295 296 297 298 301 304 309 311 313 315 317 318 318 318 316 315 315 315 315 315 316 316 317 318 318 317 318 318 319 319 319 320 322 324 327 331 334 333 333 334 335 336 337 337
Wind_Speed
11 13 13 14 13 13 13 13 13 13 14 15 16 17 17 18 19 19 20 21 22 22 23 24 23 22 24 26 26 24 23 23 25 27 28 30 32 31 29 27 26 24 24 26 29 32 34 35 35 36 37 39 39 38 37 37 37 36 35 34 34 34 34 34 33 32 33 33 33 32 31 31 31 30
13 14 14 15 15 14 14 15 15 16 16 16 17 18 19 20 20 20 22 24 25 24 24 26 27 27 26 27 27 26 23 23 24 27 29 31 32 33 30 28 27 25 25 25 27 30 33 35 36 36 37 38 39 40 39 38 38 38 37 36 35 35 36 35 34 33 33 33 34 33 32 32 31 31
14 15 15 16 16 15 15 16 16 17 18 18 18 18 20 21 22 23 24 27 29 27 27 28 29 30 30 29 27 26 24 23 24 26 28 30 32 32 30 28 27 26 25 25 26 28 31 34 36 37 37 37 38 39 40 40 40 39 38 37 36 36 37 36 36 34 34 34 35 34 33 32 31 31
16 17 17 17 16 16 16 17 18 19 19 19 20 20 20 21 22 24 25 29 32 30 29 30 30 30 32 30 27 27 26 23 24 25 27 29 30 31 30 28 27 26 26 26 26 27 29 33 36 37 38 38 38 38 40 40 41 41 39 38 37 37 37 37 37 36 35 35 35 35 34 33 32 31
16 17 17 17 16 16 17 17 18 19 20 20 21 21 22 22 22 23 25 29 33 33 30 30 31 31 31 31 28 28 27 25 24 25 26 28 29 30 31 30 28 26 26 27 28 28 28 30 35 37 39 39 39 38 39 39 40 41 41 40 38 38 38 37 37 36 36 35 34 34 34 34 33 32
15 16 17 17 16 16 16 17 17 19 20 21 22 22 23 24 24 23 25 28 32 34 33 32 32 31 31 31 29 29 29 26 25 26 27 28 29 30 32 32 31 29 27 26 27 28 29 29 32 36 39 40 40 39 39 39 39 41 42 41 40 39 38 38 37 37 36 36 35 34 34 34 33 33
14 16 17 17 16 16 16 17 17 18 19 20 22 23 24 25 25 24 25 27 30 33 34 33 33 32 32 32 30 29 30 28 26 27 28 29 30 30 32 34 35 34 32 30 28 27 28 29 31 34 37 39 40 40 39 39 39 39 41 42 42 41 39 38 38 37 37 37 37 36 35 34 34 34
14 15 16 16 16 16 17 17 17 17 18 19 20 22 23 24 26 25 25 26 28 31 34 35 34 33 33 33 31 30 30 29 28 28 29 30 31 32 33 35 37 37 37 36 32 28 27 28 30 32 35 38 40 41 40 39 39 39 40 41 42 41 40 39 38 38 38 38 38 38 37 36 35 34
16 16 17 17 16 16 17 17 17 17 18 19 20 21 22 23 25 25 26 27 28 31 34 36 35 33 33 33 32 30 30 30 30 30 30 31 33 34 34 36 38 40 41 40 36 31 28 27 27 30 34 37 38 40 41 40 39 38 39 40 42 42 41 40 39 38 38 39 40 39 38 37 36 35
16 17 17 17 16 17 18 17 17 17 18 19 20 21 22 23 24 26 27 28 29 30 32 34 35 34 33 33 33 30 29 31 32 32 34 34 35 36 37 39 40 42 43 42 39 36 31 28 26 28 31 35 37 39 40 41 40 38 38 39 41 42 42 41 40 39 39 40 40 40 39 38 37 36
17 17 17 17 17 17 18 18 18 18 18 19 20 21 22 23 24 26 27 27 28 29 30 31 33 33 32 33 33 31 30 30 31 32 35 37 38 37 39 40 42 43 44 43 41 39 36 32 28 26 28 32 35 37 39 41 41 39 38 38 39 41 42 42 41 40 39 40 40 39 39 38 37 36
17 17 17 18 18 18 18 19 19 19 20 20 20 21 22 23 25 26 26 27 27 27 28 29 30 31 32 33 33 32 31 31 31 31 34 38 40 40 41 41 41 43 44 44 43 42 41 39 34 30 27 28 32 36 37 39 41 41 39 38 38 39 41 41 41 40 40 40 40 39 38 37 36 36
17 16 17 17 18 19 20 20 21 21 21 21 21 22 22 23 25 25 26 26 26 26 26 27 29 31 33 34 34 33 33 32 32 32 34 38 40 41 42 42 40 41 43 44 46 46 45 44 41 36 32 28 29 33 36 38 40 41 41 39 38 38 40 41 41 40 40 40 40 39 37 35 34 34
15 15 16 17 18 20 21 22 23 22 21 22 23 23 24 24 25 25 26 26 26 26 25 27 29 30 32 35 35 35 35 34 33 33 34 37 39 41 43 43 40 39 41 45 48 49 47 44 43 40 35 31 29 31 34 36 38 41 41 41 39 38 38 40 40 40 39 39 39 38 36 34 33 33
15 16 17 18 19 20 22 23 24 23 22 23 23 25 25 25 25 26 26 26 26 26 27 27 28 30 33 35 35 35 35 34 33 34 34 36 38 39 41 43 42 40 41 45 49 51 48 44 43 42 37 33 30 30 33 34 36 39 41 42 41 40 38 38 38 39 39 39 39 38 37 35 34 33
17 17 18 19 19 21 22 24 25 24 23 23 24 25 26 27 27 26 26 26 26 27 28 28 30 32 34 35 34 34 35 35 35 35 35 35 36 37 39 42 43 42 42 46 50 52 50 46 43 43 40 35 32 30 32 34 35 37 40 42 43 42 40 38 37 38 39 39 39 38 37 35 34 34
19 20 20 20 20 21 22 23 25 24 24 23 24 26 27 28 28 27 27 26 26 27 28 29 31 32 32 33 33 32 34 36 37 36 35 34 35 37 38 40 43 43 43 47 50 51 51 47 44 45 41 36 33 31 31 34 36 36 38 41 43 44 43 40 38 38 38 39 40 39 38 36 35 35
21 21 21 20 21 21 21 22 23 23 23 24 25 25 26 27 28 29 28 27 27 27 27 29 31 31 31 32 32 31 32 34 36 34 32 32 34 37 38 40 42 43 44 47 47 49 50 48 45 46 43 38 36 33 30 32 35 37 37 40 42 44 44 43 41 39 38 38 39 40 39 37 36 35
23 22 21 21 21 21 21 21 21 21 23 24 25 25 25 26 27 28 29 28 27 27 27 28 30 30 29 30 31 31 31 33 34 32 30 31 34 37 38 40 43 44 45 45 44 47 50 47 44 47 44 39 38 35 32 31 35 37 37 38 41 42 43 43 42 41 39 38 38 39 39 38 37 35
24 23 22 21 21 21 21 19 19 21 22 23 25 26 26 26 26 27 27 27 27 28 27 28 28 28 29 29 30 30 30 32 33 31 31 32 33 35 38 41 44 47 47 45 43 46 49 46 44 46 44 40 39 37 33 31 33 37 37 37 40 41 43 43 43 42 40 39 38 38 38 38 37 35
25 24 22 21 22 22 21 19 19 21 22 24 26 27 26 26 27 26 25 25 26 27 27 26 26 27 28 29 30 29 29 30 31 30 32 33 32 34 38 42 46 48 49 49 45 44 46 45 44 46 45 41 39 37 35 32 32 36 38 37 38 40 42 43 43 42 41 40 39 38 38 37 36 36
28 24 21 20 22 21 20 20 20 21 23 25 26 26 26 26 27 25 24 25 26 26 26 25 25 26 27 28 29 28 28 29 29 29 31 33 33 35 38 42 47 48 50 51 47 41 43 45 44 45 45 42 40 36 34 32 31 35 37 37 38 39 41 42 42 42 41 41 40 39 38 37 36 36
29 22 18 19 21 20 20 20 20 22 24 25 25 26 26 26 26 25 24 26 26 26 25 26 26 27 26 26 27 28 28 29 30 30 31 33 34 36 38 41 44 45 50 53 48 42 46 47 45 43 42 42 41 36 32 29 28 33 37 37 36 38 40 40 41 41 41 41 41 40 39 37 37 37
30 23 22 21 20 20 20 20 20 22 24 25 25 25 26 25 24 24 25 27 26 25 25 27 27 27 26 26 27 28 29 29 30 30 31 33 35 36 38 40 42 44 51 55 51 47 49 48 46 44 40 40 41 37 33 29 26 28 35 37 35 36 38 39 39 40 40 40 40 39 38 37 37 37
26 22 22 21 19 19 20 20 21 23 24 24 25 25 24 23 24 24 26 26 25 24 25 27 27 27 27 27 27 28 30 30 31 31 31 32 33 34 35 39 42 46 53 56 51 49 49 47 46 45 41 39 40 39 36 31 26 24 29 34 34 33 35 37 38 39 40 40 40 39 39 38 37 37
23 20 20 18 18 19 20 20 21 23 24 24 24 23 23 23 23 24 25 24 23 24 25 26 27 26 27 28 29 30 31 31 31 32 32 32 32 31 32 36 40 47 55 56 50 47 47 46 44 43 41 39 39 39 36 33 28 24 24 29 31 32 33 36 37 38 39 39 39 39 39 38 38 37
22 19 17 17 18 19 19 20 21 23 23 23 24 23 23 22 22 22 22 22 23 24 25 26 26 27 28 30 31 31 31 31 32 32 33 33 32 31 32 34 40 47 53 54 49 44 45 45 43 41 41 39 37 38 37 33 29 25 23 24 26 29 32 34 36 37 37 38 38 38 38 38 37 37
21 19 18 17 18 19 19 20 21 22 22 23 24 24 22 21 21 20 20 21 23 24 25 26 27 29 30 31 30 30 31 32 32 32 33 33 32 31 32 36 42 47 50 50 47 44 44 42 38 36 37 38 37 38 37 33 29 25 24 23 23 25 30 33 34 35 35 36 36 37 38 38 37 37
21 19 18 18 19 19 20 21 21 21 23 24 24 22 20 19 19 20 21 22 23 23 24 26 29 29 29 28 27 28 29 30 31 31 33 33 31 31 33 37 42 47 48 48 46 45 41 33 27 26 29 34 36 35 35 33 29 25 25 25 23 22 26 30 33 34 34 35 35 36 37 38 37 37
19 18 18 19 19 19 21 21 22 22 22 21 19 18 17 17 18 19 21 22 22 23 25 27 28 27 25 24 25 26 27 29 29 30 32 33 32 32 34 38 44 47 48 47 46 45 39 25 17 17 22 29 31 31 32 32 29 25 23 25 24 22 22 27 31 33 34 34 34 35 36 36 36 36
17 18 19 19 20 19 20 20 20 19 18 16 15 15 16 17 18 20 21 21 22 24 25 25 24 22 22 23 24 25 26 28 28 29 31 32 32 32 33 38 44 47 49 49 46 43 34 20 13 14 19 25 26 27 29 29 28 26 22 22 24 22 21 23 27 30 32 33 33 35 35 35 35 35
15 17 19 20 20 19 17 18 17 16 15 14 14 15 16 18 20 20 20 21 22 23 23 21 21 21 21 22 24 25 27 27 28 29 29 30 31 30 31 36 42 45 48 52 50 43 30 14 10 13 16 21 21 23 26 26 27 26 24 22 22 21 21 21 23 26 29 30 32 34 34 35 35 35
16 18 19 19 18 16 15 15 15 15 14 14 15 16 17 18 19 19 20 21 22 20 19 19 20 21 22 24 25 26 27 28 28 29 29 29 29 28 28 34 40 41 45 52 53 47 34 14 8 11 12 16 18 20 23 24 25 25 24 23 21 21 21 22 22 22 24 27 29 31 33 35 35 35
15 16 17 16 15 13 13 14 14 14 14 15 16 17 17 17 18 20 21 21 19 18 18 19 20 23 25 26 27 28 28 29 28 28 28 28 28 27 27 32 37 38 41 47 49 48 42 24 6 11 12 14 18 20 21 22 22 23 22 21 21 20 20 21 22 23 22 23 25 27 29 32 33 34
14 14 15 14 12 11 12 13 14 14 15 16 16 16 17 18 20 20 20 18 17 17 18 19 22 24 27 28 28 28 28 28 29 29 28 27 27 26 25 29 35 37 39 44 46 46 45 34 14 9 16 18 19 20 20 20 20 21 21 20 20 19 20 20 22 22 20 19 21 23 25 28 30 31
12 12 12 11 11 12 13 13 13 14 15 15 16 16 17 18 19 19 17 16 16 17 19 21 24 26 27 27 27 26 25 26 27 28 27 26 27 26 23 25 31 36 36 40 43 43 43 40 27 7 14 24 24 21 20 21 21 21 21 19 18 18 19 19 18 17 16 16 18 21 23 25 27 28
11 10 10 11 12 12 12 12 13 14 14 15 16 16 17 17 17 16 15 15 16 18 21 24 25 26 26 25 24 23 22 23 24 25 25 25 26 26 23 22 27 33 35 36 39 41 41 40 35 23 3 15 24 22 19 18 19 20 18 16 15 16 16 16 15 15 14 14 17 20 22 23 23 24
10 10 9 10 11 11 11 12 14 15 15 15 15 16 16 15 14 14 14 15 17 20 23 24 24 24 23 22 22 21 21 21 22 22 23 24 25 25 23 21 24 29 32 33 35 38 40 39 37 32 22 7 6 14 17 15 15 17 18 16 15 15 14 14 15 15 15 15 16 18 20 22 22 20
9 9 9 9 10 11 12 14 15 15 15 15 14 14 13 12 12 13 14 17 19 21 22 22 21 20 19 19 20 20 20 20 20 20 21 22 24 24 23 21 21 24 27 30 33 36 39 40 39 34 27 20 13 4 9 12 10 11 15 16 15 15 14 15 15 15 15 16 15 14 15 18 19 19
8 8 9 9 11 12 13 14 15 14 14 13 12 12 12 11 12 14 16 18 20 20 19 18 17 17 17 18 18 19 20 19 19 20 20 21 22 23 23 22 20 20 22 26 30 33 36 38 38 34 29 23 19 15 13 12 10 7 10 13 13 13 14 15 15 15 16 16 15 13 14 15 17 17
7 8 10 11 12 13 13 13 13 12 12 11 11 11 11 12 14 16 18 19 18 17 15 15 15 15 15 16 17 19 19 19 19 19 20 21 22 22 23 23 22 19 19 22 26 28 31 33 32 32 31 27 21 18 18 17 15 11 6 7 10 12 14 14 14 14 15 15 14 14 15 16 15 16
8 9 11 12 12 12 12 12 11 10 10 10 10 10 11 13 15 16 17 16 14 13 13 13 13 14 15 15 16 18 19 19 20 20 19 21 22 22 22 24 23 18 15 18 22 23 25 27 28 29 33 33 30 27 26 25 23 19 15 10 8 10 12 14 15 15 16 15 15 16 18 17 16 16
9 9 10 11 11 11 12 12 11 9 9 9 10 11 12 13 14 14 13 12 11 11 11 11 12 13 14 14 15 17 18 18 19 20 20 20 22 23 23 23 22 18 12 12 17 20 22 24 26 27 31 33 33 31 30 29 27 24 21 17 14 12 10 11 13 16 18 17 17 19 20 19 18 17
10 10 11 12 11 12 12 12 10 8 8 10 11 11 12 13 12 11 9 9 9 10 10 11 12 13 14 14 15 16 17 18 18 19 19 19 20 22 22 21 21 19 13 9 11 18 22 24 24 25 27 31 32 30 30 31 32 30 27 24 22 19 16 13 11 14 17 16 16 18 18 17 15 14
11 12 12 12 12 12 12 10 9 8 9 10 11 12 11 10 9 8 7 8 9 10 10 11 11 12 13 14 15 16 17 17 18 18 19 19 18 19 20 20 20 20 16 10 9 12 18 22 24 23 23 26 28 30 30 30 31 32 31 30 28 26 24 22 18 13 12 12 10 10 12 13 14 14
Wind_Direction
280 284 287 289 290 290 291 293 294 293 292 290 287 286 288 293 297 300 301 303 306 310 314 315 316 322 327 329 328 328 328 330 333 336 340 341 341 338 332 323 312 298 285 275 268 264 261 258 256 255 254 252 251 250 249 248 246 244 242 241 242 243 244 244 244 244 245 246 246 245 245 246 247 248
275 280 284 286 288 290 291 293 294 295 294 292 288 284 283 286 291 296 299 300 301 306 311 312 313 316 320 324 325 325 326 327 330 334 338 341 342 340 335 328 318 307 297 286 276 268 263 259 257 256 255 254 252 250 249 248 247 246 245 243 242 242 242 243 244 244 244 245 245 245 245 245 245 246
275 278 281 283 286 287 288 289 290 292 293 293 291 286 283 284 286 290 294 295 297 302 307 308 310 313 315 319 322 323 323 324 327 332 337 340 342 341 337 332 324 315 307 299 289 277 267 260 256 254 254 253 252 251 249 248 247 246 245 244 242 242 241 241 242 242 243 244 245 246 245 244 243 244
274 277 278 280 283 285 285 286 287 288 288 289 290 288 286 285 286 288 289 291 294 299 303 305 308 310 312 314 319 321 320 320 322 329 335 338 340 342 341 337 331 322 314 309 303 291 276 263 255 253 252 252 251 250 249 248 246 246 245 243 242 241 241 240 240 240 241 242 244 245 246 245 243 243
272 275 277 279 283 286 288 289 288 287 286 286 286 287 287 286 287 288 289 291 295 298 302 304 306 308 309 311 316 319 318 316 318 323 330 334 336 340 342 341 339 332 322 314 310 304 291 272 258 252 250 250 250 249 248 247 246 245 245 244 243 241 240 240 239 239 240 240 241 242 244 245 244 243
271 272 275 278 283 287 288 289 289 288 287 284 283 284 285 286 286 287 289 291 294 297 301 303 303 305 307 308 313 317 316 314 315 318 325 329 331 334 337 339 341 340 334 323 314 310 303 288 269 255 249 248 248 247 247 247 247 246 244 244 243 242 241 240 239 239 239 239 239 240 242 244 245 243
273 272 274 278 283 285 285 287 288 289 288 286 284 284 283 284 285 285 288 290 293 295 298 300 301 303 305 306 310 314 313 312 312 314 320 324 325 328 332 334 336 339 339 333 322 313 306 298 283 265 253 248 246 246 246 246 247 247 245 243 242 241 240 238 238 238 238 239 239 239 240 242 244 244
276 272 274 278 281 283 285 288 290 291 292 291 288 286 285 284 284 285 285 287 290 293 295 297 299 301 302 304 308 312 311 309 308 309 315 320 321 323 327 330 332 334 336 336 330 319 309 302 292 275 261 252 247 245 245 245 246 247 247 244 241 239 237 236 235 236 238 239 239 239 240 241 242 244
275 272 274 278 281 284 288 290 292 293 295 295 292 289 287 285 283 283 283 285 289 291 293 295 298 299 299 301 306 310 311 309 306 307 311 315 317 320 323 326 329 331 333 335 334 326 315 305 297 283 268 257 251 246 244 244 245 246 247 245 241 237 235 234 234 236 239 240 239 239 239 240 241 242
273 272 274 277 280 285 291 293 293 294 296 296 295 292 290 287 285 286 287 289 291 292 293 294 296 298 299 301 305 309 310 308 306 306 308 311 315 319 321 323 326 329 331 333 334 331 322 311 302 290 274 262 256 250 245 243 243 244 246 245 242 237 233 233 234 237 239 240 239 238 237 238 240 242
271 272 273 276 279 286 293 295 296 296 296 296 296 295 293 290 289 291 293 294 294 293 294 294 296 298 300 301 304 308 310 307 305 306 307 310 313 316 318 321 324 327 330 331 331 330 327 319 308 297 281 265 258 254 248 243 241 242 243 243 242 238 234 233 235 237 238 238 237 236 235 236 239 241
269 270 271 274 279 285 291 294 296 296 296 297 297 297 296 294 293 295 296 297 296 296 296 297 298 299 300 301 305 308 311 310 309 308 306 308 311 313 315 318 322 327 330 331 330 328 328 323 314 303 289 272 259 255 252 245 241 240 240 240 240 238 235 233 234 235 236 235 234 233 233 234 236 239
267 269 272 276 281 284 286 289 292 295 296 296 296 297 296 294 295 296 298 300 300 299 298 298 300 300 300 302 306 309 312 312 311 309 306 305 307 310 313 315 320 327 329 329 328 326 325 321 315 307 295 281 266 256 252 247 241 238 238 238 237 237 236 234 233 234 234 233 231 230 231 231 233 236
266 270 275 280 283 283 282 283 287 292 294 294 294 295 294 293 294 296 299 301 301 300 298 298 300 299 299 303 306 308 310 312 311 309 306 305 306 309 312 313 319 327 328 326 323 323 323 319 313 307 297 287 275 260 252 249 243 238 237 237 236 236 236 235 234 233 233 231 229 228 228 229 231 234
269 274 279 283 284 282 280 281 284 288 292 292 291 291 290 290 291 293 296 298 300 299 298 298 298 296 297 302 306 307 309 311 310 308 306 305 306 309 311 312 317 324 326 323 319 319 321 320 313 307 299 289 281 267 253 248 244 239 236 235 235 234 235 235 235 234 233 231 229 227 227 227 230 234
271 276 281 285 286 284 280 279 281 285 289 292 291 288 287 287 288 289 291 294 297 297 296 295 294 295 297 301 304 306 309 310 309 306 304 304 305 306 307 308 312 318 321 320 316 315 318 319 313 306 300 292 284 274 258 248 243 239 235 234 233 233 233 234 234 234 234 232 231 230 230 230 232 235
270 274 280 285 288 286 281 277 280 284 288 292 291 288 285 284 286 287 288 290 293 294 293 292 293 296 298 299 301 306 308 307 306 304 303 303 302 302 304 305 308 313 316 316 315 312 314 318 313 305 300 294 287 279 264 250 243 239 236 233 232 232 233 233 232 233 234 233 232 232 233 233 233 235
271 274 279 285 289 288 282 278 279 282 287 290 289 288 286 285 285 285 285 288 292 293 292 291 293 297 298 296 299 304 306 304 303 303 301 300 299 299 302 303 305 308 311 315 313 308 311 317 313 304 301 296 289 282 269 254 244 239 236 233 231 231 231 232 231 232 233 233 232 231 231 232 233 233
271 274 278 283 288 288 283 279 278 281 285 287 289 289 288 287 287 286 287 289 292 294 294 293 295 298 298 297 298 302 303 303 303 302 298 295 295 298 301 303 303 305 309 315 310 303 308 315 310 303 303 298 289 282 273 259 245 238 235 232 230 229 229 230 231 230 231 231 231 230 229 230 231 232
272 274 274 279 286 287 283 277 275 279 283 287 290 291 290 289 288 287 288 290 292 294 295 295 297 299 299 298 298 300 301 302 303 302 296 293 295 300 305 305 305 306 309 313 309 301 303 309 307 302 302 298 291 283 274 263 248 238 234 231 230 228 227 228 229 230 230 230 230 229 228 228 230 231
272 270 267 274 284 286 282 277 274 277 283 289 292 292 291 289 287 287 289 290 291 293 295 296 298 300 300 298 297 297 298 300 303 299 294 294 298 303 306 306 307 308 308 311 312 303 299 304 305 301 300 297 291 283 275 267 252 239 233 230 229 228 225 226 227 228 229 229 228 229 228 228 230 232
268 263 259 270 281 281 278 275 275 279 285 290 293 293 292 288 287 290 291 290 292 295 296 298 301 303 302 300 299 299 299 302 305 299 294 296 298 301 305 306 309 309 308 312 314 305 298 301 302 300 298 293 289 283 277 269 255 241 233 229 228 227 225 224 225 226 228 228 228 228 229 231 233 235
270 266 266 274 277 274 273 273 276 283 289 292 294 294 291 289 290 292 292 291 294 298 300 303 307 308 307 305 304 304 303 305 307 303 299 297 297 299 303 307 310 309 308 313 315 305 299 299 298 296 293 287 284 283 277 270 258 243 234 228 226 226 225 224 224 225 226 227 227 227 229 230 233 235
279 272 273 278 274 270 271 272 278 287 292 293 295 294 291 291 291 291 291 293 297 301 304 308 311 311 310 309 308 307 307 307 306 306 304 302 299 299 302 308 311 308 308 315 317 307 300 299 295 292 287 279 277 277 274 269 261 245 235 229 225 225 224 223 223 224 224 225 226 226 227 228 230 233
287 273 274 279 273 267 269 273 282 291 294 295 296 295 293 291 288 288 290 294 298 303 307 310 312 312 312 312 311 310 309 308 306 306 307 307 306 303 304 309 311 310 313 319 318 308 302 298 293 288 281 272 269 269 269 266 259 245 236 231 226 223 222 222 223 223 223 224 224 223 224 225 228 230
290 281 278 275 266 265 271 278 288 295 296 297 298 295 290 286 285 287 291 296 301 306 309 310 311 312 313 312 312 311 310 308 308 308 309 310 309 307 307 311 314 315 318 322 321 313 305 299 292 283 274 265 261 262 263 262 254 239 230 229 228 225 222 221 222 223 223 224 224 223 223 224 226 228
288 283 274 264 261 266 272 282 291 296 297 298 296 292 287 284 285 289 294 300 305 307 309 311 311 312 313 313 313 314 312 312 313 312 311 312 311 307 307 313 320 322 322 324 325 320 309 300 291 279 267 257 252 252 254 255 250 236 223 223 226 224 222 220 220 222 223 223 223 222 222 223 225 226
282 276 268 264 264 267 272 282 292 295 297 298 294 290 287 287 290 295 299 304 307 308 310 311 311 313 314 315 317 317 316 317 316 315 314 314 313 311 309 314 323 326 326 327 329 326 316 303 289 274 260 248 242 242 244 246 246 236 222 219 221 220 219 218 217 219 220 220 220 219 219 221 222 223
279 272 269 268 268 269 273 281 290 293 295 295 293 291 290 290 293 299 304 308 310 310 310 311 312 315 317 319 321 321 320 321 320 319 318 317 317 314 310 314 322 327 330 333 335 333 325 308 284 266 251 237 232 235 236 238 241 235 223 221 221 218 214 214 214 214 215 216 216 217 219 221 222 222
278 273 272 273 273 274 277 284 292 293 293 293 292 291 291 292 297 303 308 310 310 310 311 313 315 319 322 325 326 326 325 326 325 325 324 323 322 319 315 319 326 330 334 340 341 340 336 319 282 259 242 228 227 230 229 231 235 233 224 220 221 220 214 212 212 212 212 213 215 216 217 220 221 223
274 273 276 278 278 278 283 291 296 295 295 296 294 292 293 298 304 308 309 310 310 312 314 316 318 323 327 329 330 331 331 332 332 331 330 328 328 326 323 326 331 334 339 345 348 347 344 328 289 259 232 220 222 225 222 225 230 230 224 219 219 220 216 211 210 211 212 213 214 214 215 217 220 222
271 274 278 282 284 288 294 297 297 296 298 298 296 296 301 305 308 308 308 310 312 313 315 317 321 327 330 332 333 334 335 337 337 337 335 331 330 331 330 332 337 341 345 349 351 352 348 328 278 256 224 209 214 218 218 223 229 227 224 222 222 222 219 214 212 211 210 211 213 214 215 216 218 220
270 275 281 288 295 300 301 299 296 296 297 295 294 298 302 304 305 306 308 310 312 312 314 318 324 330 333 334 334 334 335 339 341 340 338 335 334 334 333 336 342 348 351 353 354 354 353 340 260 241 216 199 207 218 221 228 230 225 224 226 230 230 225 219 216 213 211 211 211 213 215 216 217 219
274 281 288 294 297 297 294 294 293 291 290 291 295 299 303 304 307 309 310 311 311 313 317 323 330 333 333 332 331 332 334 338 341 341 339 337 338 337 336 340 347 352 355 357 357 357 358 356 295 230 214 205 214 225 230 231 225 220 224 230 233 233 229 221 217 215 211 210 212 213 215 216 217 219
279 282 287 288 286 282 284 288 288 287 289 293 298 303 306 307 309 310 310 310 311 315 322 328 332 332 330 328 328 329 332 336 339 341 340 339 341 340 338 344 352 356 360 2 2 0 2 2 349 242 218 214 217 223 229 229 221 217 225 231 231 231 231 227 221 216 209 205 208 213 215 217 219 220
277 279 280 276 272 275 282 288 291 292 296 299 303 306 307 307 308 309 310 311 316 322 328 330 331 329 327 325 326 328 331 334 336 339 340 340 343 343 339 344 354 0 5 8 7 4 5 7 8 350 211 207 208 215 222 222 220 222 226 227 225 221 219 217 215 212 209 207 208 210 212 215 217 220
278 280 278 272 271 278 287 293 296 299 303 305 307 307 305 305 307 309 312 317 323 328 331 331 329 328 326 326 327 329 331 333 335 338 340 341 344 346 341 341 352 1 8 11 10 8 9 12 15 19 34 196 198 201 206 209 214 222 225 220 216 213 208 206 206 203 205 211 213 213 213 214 215 217
280 284 283 279 279 285 293 297 300 304 307 309 308 307 306 307 310 312 317 323 328 331 331 329 328 328 329 330 330 331 333 335 335 338 341 342 344 346 344 342 349 359 8 13 13 12 15 19 22 23 23 29 182 196 203 205 212 224 226 221 217 215 210 208 209 207 207 211 212 212 214 215 215 215
282 286 289 288 289 293 297 300 303 307 310 310 309 310 311 314 315 318 323 328 330 331 330 329 330 333 334 335 334 335 337 339 340 342 344 344 344 345 347 349 350 354 4 15 18 17 21 26 30 31 31 32 38 88 178 181 182 206 219 221 221 220 216 210 207 207 209 211 209 207 210 213 213 213
287 289 291 291 294 298 300 302 306 311 315 314 312 313 317 319 321 324 328 330 331 331 331 333 336 340 341 341 340 341 343 345 347 348 346 345 346 347 349 352 352 350 1 17 22 21 24 30 34 37 41 45 50 66 96 113 117 153 197 210 214 217 218 217 213 209 209 210 209 208 207 204 202 204
295 294 293 295 298 300 302 306 313 317 319 316 315 317 320 322 325 328 330 330 331 333 336 340 344 348 349 348 346 348 350 352 354 355 350 347 348 350 351 352 353 352 0 17 25 24 25 31 36 39 44 50 56 62 68 66 62 71 116 177 200 207 213 219 221 218 214 212 211 214 215 210 204 204
295 294 296 298 302 305 309 315 318 316 312 312 313 313 314 317 323 327 329 331 335 339 344 349 354 358 358 355 352 354 356 357 358 358 355 351 350 352 354 355 355 355 2 18 28 30 29 30 35 38 42 47 52 54 53 50 47 54 74 105 150 184 202 212 217 223 224 220 213 214 215 211 204 204
297 300 303 304 307 310 314 318 319 311 302 304 309 310 311 317 323 326 330 335 341 347 354 1 5 5 4 2 0 1 3 3 2 360 358 355 353 353 355 356 357 358 7 24 35 38 37 34 35 38 40 44 49 53 54 51 48 50 62 80 100 125 154 177 195 210 220 219 213 212 211 207 203 204
301 305 307 307 307 311 313 314 313 304 295 297 305 311 315 319 324 329 338 348 354 359 6 9 10 9 9 6 5 6 7 8 6 2 359 359 357 356 358 358 358 360 6 22 37 41 41 39 39 42 45 46 46 49 54 57 54 52 55 64 77 93 107 119 149 185 196 194 194 203 206 203 203 209
298 302 303 302 303 306 308 307 303 296 292 296 304 312 316 320 328 340 354 4 6 7 8 7 8 10 11 7 6 8 8 8 8 7 5 4 2 0 2 3 3 3 5 9 19 37 46 46 45 47 51 52 50 48 51 57 60 58 56 57 62 71 81 88 99 130 156 153 156 189 205 201 203 213